Wind_Speed
20 21 21 22 21 21 21 21 21 21 22 22 22 22 23 24 24 24 24 24 24 24 24 25 25 25 25 26 25 25 24 24 24 24 24 24 23 23 23 22 22 21 22
21 21 22 22 23 22 21 22 22 22 23 23 23 24 24 24 24 24 24 24 24 24 25 26 26 26 26 26 26 25 26 26 26 26 26 25 25 25 25 25 24 24 23
20 21 22 23 23 23 22 23 24 24 25 25 25 24 25 25 25 25 25 25 25 25 25 26 26 26 26 26 26 26 26 27 27 27 27 27 27 26 26 27 26 25 24
22 22 22 23 23 23 23 24 24 25 25 25 25 25 25 26 26 26 26 26 27 27 26 27 26 26 26 26 27 27 26 27 27 26 27 27 27 27 27 27 27 27 26
23 24 24 24 24 24 24 25 25 25 25 25 26 26 26 26 26 26 27 28 27 27 28 28 28 28 28 28 28 28 29 28 28 27 27 27 27 27 27 27 28 27 27
24 24 25 25 25 25 25 25 25 25 25 25 26 26 27 28 27 27 28 29 29 29 29 28 28 29 29 29 29 29 29 28 28 28 27 27 27 27 27 27 28 27 27
23 24 24 25 25 25 25 26 25 25 26 25 26 27 27 28 28 28 28 29 30 30 29 29 28 29 29 30 30 30 29 29 28 28 27 27 28 28 28 28 29 28 27
22 23 24 24 25 25 25 25 25 25 25 25 26 26 26 27 28 29 30 30 30 30 30 30 30 30 29 29 29 30 30 30 29 28 28 28 28 29 29 29 30 29 29
23 23 24 24 25 25 25 26 26 26 27 27 27 27 27 27 28 29 30 30 30 30 30 30 30 31 32 31 31 31 31 30 31 31 30 29 30 29 30 31 31 31 31
23 25 25 26 26 26 26 26 27 27 27 27 28 29 29 28 28 29 30 30 31 31 31 31 31 32 32 32 32 32 31 31 32 32 31 31 31 31 31 32 32 32 31
24 25 26 26 25 25 26 27 27 28 28 29 29 29 29 29 29 28 29 30 30 31 31 31 31 32 33 32 33 33 33 33 33 33 33 32 32 32 32 33 33 33 32
25 26 27 26 26 26 26 27 27 28 29 29 29 29 30 30 30 29 29 28 28 29 29 29 29 31 32 32 32 32 33 34 34 34 34 34 34 34 34 34 33 33 33
26 26 26 25 25 26 27 27 28 28 28 28 29 29 29 29 29 29 28 28 28 27 27 28 28 29 30 31 31 31 32 33 34 34 34 34 34 34 34 33 33 33 32
24 24 25 25 25 26 26 27 27 27 27 27 28 27 27 27 28 28 28 27 26 26 27 28 28 27 27 28 29 30 30 31 32 33 34 34 33 33 33 34 34 33 33
23 24 24 25 25 26 26 26 26 26 26 26 25 25 25 25 25 25 25 26 25 25 26 26 26 25 25 26 27 28 28 29 30 32 32 33 32 33 33 33 33 33 32
22 22 23 23 24 24 24 24 24 24 24 23 23 22 23 23 23 23 23 24 24 24 23 24 24 24 24 24 25 26 26 27 28 30 31 31 31 31 32 32 33 33 33
20 21 21 22 22 23 23 23 23 22 22 21 20 20 21 22 22 22 21 21 22 22 22 21 21 22 23 23 24 25 26 27 27 28 29 29 29 29 30 30 31 31 31
19 20 20 20 20 21 22 21 21 20 19 18 17 17 18 19 19 18 19 19 20 20 21 21 20 21 22 22 22 23 24 25 25 26 27 27 27 28 27 27 28 28 29
19 19 19 18 18 19 19 19 19 18 17 15 15 15 15 15 15 15 16 17 18 19 19 20 20 20 21 21 21 22 22 22 23 23 23 23 24 24 24 24 25 26 27
18 18 18 18 18 18 18 17 16 15 14 13 14 14 14 13 13 13 14 15 16 17 18 19 19 18 18 19 19 19 19 20 20 20 20 20 21 21 22 22 23 24 24
17 17 17 17 17 17 17 16 14 13 12 12 12 12 11 12 12 12 13 13 14 15 16 16 16 15 15 16 16 16 16 16 16 16 17 18 19 20 20 20 21 21 22
14 14 15 16 16 16 15 14 14 12 12 11 10 9 10 10 11 11 11 12 12 13 12 13 13 13 13 13 13 13 14 15 15 15 15 16 16 17 17 18 19 20 21
12 13 14 15 15 14 14 15 14 12 11 10 9 9 9 9 10 10 10 11 11 11 11 10 10 10 10 10 11 11 12 13 13 14 14 14 15 15 15 16 17 18 19
12 13 14 14 14 13 13 13 12 11 10 10 9 9 9 9 10 9 9 9 9 9 9 8 8 7 7 8 8 9 10 10 11 12 12 12 13 13 13 13 15 16 17
12 13 13 13 13 12 12 12 11 10 9 9 9 8 8 9 9 9 8 8 9 9 8 7 7 6 7 7 7 7 8 9 9 10 11 11 12 12 13 13 14 14 15
11 12 12 13 12 12 12 11 10 10 9 9 8 8 9 9 8 9 8 8 8 8 8 7 6 7 6 6 6 6 7 7 7 8 9 10 10 11 11 13 14 14 14
Wind_Direction
287 286 287 285 283 281 281 279 279 278 277 279 279 277 275 272 271 270 270 268 265 263 264 264 264 264 262 261 260 259 257 254 253 252 251 249 249 248 248 249 249 249 248
287 286 286 285 281 280 280 279 279 280 280 279 279 278 276 273 273 272 271 268 266 265 265 264 264 263 262 260 259 257 257 255 254 252 250 250 248 247 248 249 249 250 250
287 286 285 286 284 279 279 281 281 281 281 280 279 278 276 274 273 271 270 267 265 264 264 264 264 263 260 259 258 256 257 256 256 254 252 250 248 248 250 250 248 249 250
290 287 286 287 287 282 281 281 282 282 282 281 280 279 277 276 273 271 269 269 267 264 263 263 262 262 260 259 258 257 257 258 256 255 253 250 248 249 249 249 249 250 251
289 288 287 286 287 283 282 283 284 283 282 281 280 279 278 277 275 273 270 269 268 266 265 263 262 261 262 260 259 258 257 258 255 252 252 250 248 249 250 251 249 251 250
286 286 285 282 284 284 283 282 284 284 282 281 281 281 280 279 277 274 272 270 268 267 265 263 261 260 260 259 258 257 255 255 254 250 249 249 249 251 253 253 250 251 252
284 285 283 283 284 284 284 284 284 284 284 283 282 282 280 279 278 274 274 273 271 269 266 264 263 261 260 258 256 256 255 254 254 252 250 249 249 250 252 253 253 251 252
283 285 286 285 284 285 285 285 285 284 284 284 283 284 283 280 278 275 275 274 271 269 267 266 264 263 261 260 259 257 256 255 254 252 251 251 250 250 251 254 254 252 252
286 286 287 286 286 287 287 287 285 283 284 283 282 283 283 281 280 277 277 274 271 268 266 265 264 263 261 260 259 258 256 255 255 254 253 252 252 253 253 254 254 253 253
286 288 288 288 287 288 288 287 286 284 283 282 281 281 281 280 280 278 276 275 272 268 266 264 263 263 262 260 259 258 257 256 255 255 254 254 253 253 255 256 255 255 255
288 289 289 288 288 289 289 289 288 287 285 283 281 280 279 279 280 277 276 275 272 270 268 265 264 263 263 262 261 259 258 256 256 256 255 254 254 255 256 255 255 255 255
290 291 290 289 290 290 291 290 290 289 287 284 281 279 279 278 278 278 277 275 272 271 270 267 265 263 262 261 260 258 258 256 256 257 257 257 256 257 257 256 256 255 255
293 294 293 292 291 291 290 290 291 290 287 286 283 280 278 278 277 276 276 274 272 271 269 267 266 264 262 261 259 258 257 257 256 256 256 256 256 256 256 256 255 255 256
297 296 296 294 292 292 292 293 294 293 290 287 286 282 278 277 275 275 273 273 272 271 270 268 269 267 264 262 260 260 259 258 257 257 256 257 258 258 257 256 255 255 256
299 299 298 297 295 295 296 297 296 295 292 289 287 284 279 275 274 274 272 271 272 271 271 268 267 266 266 265 263 262 261 261 259 259 258 258 260 258 257 256 255 254 255
302 303 303 300 299 299 299 299 299 297 294 291 287 284 281 277 276 274 272 270 270 271 271 268 266 265 264 265 263 262 261 261 261 260 259 258 258 258 257 256 255 254 254
307 307 306 303 301 301 301 302 301 300 296 293 289 286 283 280 276 276 271 270 270 271 271 273 272 267 266 266 264 263 262 262 262 262 260 258 257 258 258 257 255 256 255
312 311 310 307 307 307 305 303 304 302 300 296 293 290 288 286 280 275 272 272 273 273 272 273 275 271 266 265 266 265 264 263 262 263 261 257 256 256 256 256 255 255 254
315 314 314 315 313 312 310 307 306 304 303 298 294 295 295 293 288 285 280 277 276 274 274 274 274 273 271 268 266 266 264 263 263 262 260 257 255 254 254 254 254 255 255
314 316 317 316 316 317 318 316 315 313 311 306 301 301 301 301 299 293 290 287 281 279 277 277 276 275 274 272 268 266 264 261 260 259 258 256 255 254 253 254 255 255 254
318 318 321 322 322 323 325 326 322 321 319 315 310 307 307 304 301 296 292 291 289 286 285 284 279 277 276 274 269 264 263 260 258 258 257 254 253 253 253 254 256 257 258
324 327 327 326 327 328 331 331 328 323 321 321 319 315 313 312 310 308 305 303 302 298 295 291 286 278 277 273 269 263 262 258 256 255 256 253 253 254 254 255 256 257 259
331 332 333 331 330 331 330 331 333 330 328 327 325 321 320 322 324 322 319 316 316 314 304 298 293 288 284 277 270 264 259 255 253 253 254 255 254 256 258 257 257 259 261
334 336 338 338 337 338 338 338 335 334 331 332 330 327 326 327 329 328 329 327 326 324 318 312 303 296 288 279 271 262 255 250 249 249 252 254 255 256 259 259 259 261 263
332 335 338 340 340 340 340 340 341 342 337 335 337 333 328 328 327 325 326 326 326 326 326 326 318 305 294 280 267 262 258 254 254 251 253 256 258 260 261 261 262 265 267
330 335 338 342 344 345 346 346 346 348 346 341 339 336 334 333 332 331 330 330 330 326 320 318 318 314 310 300 279 266 259 254 254 256 259 262 263 263 263 264 266 267 269
Height
5857 5856 5855 5853 5852 5851 5850 5849 5848 5848 5847 5846 5846 5845 5844 5844 5844 5843 5843 5843 5843 5843 5843 5844 5844 5844 5844 5844 5844 5845 5845 5846 5846 5847 5848 5849 5851 5852 5853 5854 5855 5856 5857
5853 5852 5850 5849 5848 5847 5846 5845 5844 5843 5842 5841 5840 5839 5839 5838 5838 5837 5837 5837 5837 5837 5837 5837 5838 5838 5838 5838 5838 5838 5839 5840 5840 5841 5843 5844 5845 5846 5848 5849 5850 5851 5852
5849 5847 5846 5844 5843 5841 5840 5839 5838 5837 5836 5835 5834 5833 5833 5832 5832 5831 5831 5831 5831 5831 5831 5831 5831 5831 5831 5831 5831 5832 5833 5833 5834 5835 5836 5837 5839 5840 5841 5843 5844 5845 5846
5844 5842 5841 5839 5837 5836 5835 5834 5833 5831 5830 5829 5828 5827 5826 5826 5825 5825 5824 5824 5824 5824 5824 5824 5824 5824 5824 5824 5825 5825 5826 5827 5827 5828 5829 5831 5832 5833 5835 5836 5837 5839 5840
5839 5837 5836 5834 5832 5830 5829 5828 5827 5825 5824 5823 5821 5820 5819 5819 5818 5818 5817 5817 5817 5816 5816 5816 5816 5817 5817 5817 5818 5818 5819 5820 5821 5822 5823 5824 5825 5827 5828 5830 5831 5832 5833
5833 5832 5830 5828 5826 5824 5823 5821 5820 5819 5817 5816 5815 5813 5812 5811 5811 5810 5810 5810 5809 5809 5808 5808 5808 5809 5809 5809 5810 5811 5812 5812 5814 5815 5816 5817 5818 5820 5821 5823 5824 5825 5827
5827 5825 5824 5822 5820 5818 5816 5815 5813 5812 5810 5809 5807 5806 5805 5804 5803 5803 5802 5802 5801 5801 5800 5800 5800 5801 5801 5802 5802 5803 5804 5805 5806 5807 5808 5810 5811 5813 5814 5816 5817 5818 5820
5821 5819 5817 5816 5814 5812 5810 5808 5807 5805 5804 5802 5801 5799 5798 5797 5796 5795 5795 5794 5794 5793 5792 5792 5793 5793 5793 5794 5794 5795 5797 5798 5799 5800 5801 5803 5804 5806 5807 5808 5810 5811 5813
5815 5814 5812 5809 5808 5806 5804 5802 5800 5799 5797 5796 5794 5793 5791 5790 5789 5788 5787 5786 5785 5785 5785 5784 5785 5785 5785 5786 5787 5788 5789 5790 5791 5793 5794 5795 5796 5798 5799 5801 5802 5804 5805
5809 5807 5805 5803 5801 5799 5797 5795 5793 5791 5790 5788 5787 5785 5784 5782 5781 5781 5779 5778 5777 5777 5776 5776 5776 5776 5777 5777 5778 5779 5781 5782 5784 5785 5787 5788 5789 5790 5792 5793 5794 5796 5797
5803 5801 5799 5797 5794 5792 5790 5788 5786 5784 5782 5780 5779 5777 5776 5775 5773 5773 5772 5770 5769 5768 5768 5768 5768 5768 5768 5769 5770 5771 5772 5774 5776 5777 5779 5780 5781 5783 5784 5785 5786 5788 5789
5797 5794 5792 5790 5788 5785 5783 5781 5779 5777 5774 5772 5771 5769 5768 5767 5766 5764 5763 5762 5761 5760 5759 5759 5759 5759 5759 5760 5761 5762 5763 5765 5767 5769 5770 5771 5773 5774 5776 5777 5779 5780 5781
5790 5788 5785 5783 5781 5778 5776 5774 5771 5769 5767 5765 5763 5761 5760 5759 5757 5756 5755 5754 5753 5752 5751 5751 5751 5751 5751 5751 5752 5753 5755 5756 5758 5759 5761 5763 5764 5766 5767 5769 5770 5772 5774
5784 5781 5779 5776 5774 5772 5769 5767 5764 5762 5759 5757 5755 5753 5752 5751 5749 5748 5747 5746 5745 5744 5744 5744 5743 5743 5743 5743 5744 5745 5746 5748 5749 5751 5752 5754 5755 5757 5759 5760 5762 5764 5765
5778 5776 5773 5770 5768 5765 5762 5760 5757 5754 5752 5749 5747 5746 5744 5743 5742 5740 5739 5738 5738 5737 5737 5736 5736 5735 5735 5736 5736 5737 5738 5740 5741 5742 5744 5745 5747 5748 5750 5751 5753 5755 5757
5773 5770 5767 5764 5761 5758 5756 5753 5750 5747 5745 5742 5740 5739 5737 5736 5734 5733 5732 5731 5730 5730 5729 5729 5728 5728 5728 5728 5729 5730 5731 5732 5733 5734 5735 5737 5738 5740 5741 5743 5745 5746 5748
5767 5764 5761 5758 5755 5752 5749 5747 5744 5741 5738 5736 5734 5733 5731 5729 5728 5727 5726 5724 5724 5724 5723 5723 5722 5721 5721 5721 5722 5722 5723 5724 5725 5726 5727 5728 5730 5731 5733 5734 5736 5738 5740
5763 5760 5757 5753 5750 5747 5744 5741 5738 5735 5733 5731 5729 5727 5725 5724 5722 5721 5720 5719 5718 5718 5717 5717 5716 5715 5715 5715 5716 5716 5716 5717 5718 5718 5719 5720 5722 5723 5725 5726 5728 5730 5732
5759 5756 5753 5749 5746 5742 5739 5736 5733 5730 5728 5726 5724 5722 5721 5719 5718 5716 5715 5714 5713 5712 5712 5711 5710 5710 5709 5709 5709 5709 5710 5710 5711 5711 5712 5713 5715 5716 5718 5719 5721 5722 5724
5756 5752 5749 5745 5742 5738 5735 5732 5729 5726 5724 5722 5721 5719 5717 5716 5714 5713 5711 5710 5709 5708 5707 5706 5705 5704 5704 5703 5703 5703 5703 5704 5705 5705 5706 5707 5709 5710 5712 5713 5715 5716 5717
5753 5749 5746 5742 5739 5736 5733 5730 5727 5724 5722 5719 5718 5716 5714 5713 5711 5710 5708 5707 5705 5704 5702 5701 5700 5699 5699 5698 5698 5698 5699 5699 5700 5700 5701 5703 5704 5705 5706 5708 5709 5710 5711
5750 5747 5744 5740 5737 5734 5731 5728 5725 5722 5720 5717 5715 5714 5712 5710 5709 5707 5705 5703 5702 5700 5699 5698 5696 5695 5695 5695 5694 5694 5694 5695 5696 5697 5697 5699 5699 5700 5701 5702 5703 5704 5705
5748 5745 5742 5738 5735 5732 5729 5726 5723 5721 5718 5716 5714 5712 5710 5709 5707 5705 5703 5701 5699 5697 5696 5695 5693 5692 5692 5691 5691 5691 5691 5691 5692 5693 5694 5694 5695 5696 5697 5697 5698 5699 5699
5746 5743 5740 5737 5733 5730 5728 5725 5722 5719 5717 5715 5713 5711 5709 5707 5705 5703 5702 5700 5698 5696 5694 5692 5691 5690 5689 5689 5688 5688 5688 5688 5689 5690 5690 5691 5691 5692 5693 5693 5694 5694 5694
5745 5742 5738 5735 5732 5729 5726 5724 5721 5718 5716 5714 5712 5710 5707 5706 5704 5702 5700 5698 5697 5695 5693 5691 5690 5689 5688 5687 5686 5686 5686 5686 5687 5687 5688 5688 5688 5689 5689 5689 5689 5690 5690
5743 5740 5737 5734 5731 5728 5725 5723 5720 5718 5715 5713 5711 5708 5706 5705 5703 5701 5699 5697 5696 5694 5692 5690 5689 5688 5686 5685 5685 5684 5684 5684 5685 5685 5685 5685 5685 5686 5686 5686 5686 5685 5685